Гао

Мали     16°16′10″N   0°02′18″E
темп.,
°C
ветер,
м/с
пор.,
м/с
влажн.,
%
обл.,
%
осадки,
мм/ч
давл.,
гПа
погр.,
м
9 августа, вт
вт900:00+32ююз5846100 0.0 1007359
03:00+31ю6951100 0.0 1008454
06:00+30ююз595377 0.0 1009428
09:00+32ююз4446100 0.0 1012955
12:00+36юв5535100 0.0 10112138
15:00+33зюз3329100 2.3 1007251
18:00+34з44305 2.3 1008631
21:00+32зюз453894 0.0 1010451
10 августа, ср
ср1000:00+31юз45485 0.3 1010317
03:00+30ююз345378 1.7 1009205
06:00+29ссв225448 2.3 1011208
09:00+31ююв22486 0.0 1011753
12:00+35ю443814 0.0 10091481
15:00+37ююв44319 0.0 10072541
18:00+37ююв233096 0.1 10072650
21:00+36ююз553560 0.1 1008840
11 августа, чт
чт1100:00+32юз4645100 1.3 1009314
03:00+32ююз67445 0.9 1009632
06:00+31юз79545 0.9 1011710
09:00+32юз66485 0.0 1011989
12:00+36юз54375 0.0 10091569
15:00+38зюз333035 0.0 10072518
18:00+38зсз322999 0.0 10062715
21:00+37сз233015 0.0 10071442
12 августа, пт
пт1200:00+25вюв151680100 1.4 1010476
03:00+25ююз111078100 16.9 1009337
06:00+26зюз91262100 21.8 1010354
09:00+28юз7860100 2.6 1011476
12:00+32зюз55435 3.4 10111037
15:00+34зюз553897 0.0 10081717
18:00+34юз43400 0.0 10081645
21:00+32юз66444 0.0 1010718
13 августа, сб
сб1300:00+30зюз77555 0.0 1010553
03:00+28з57602 0.4 1010539
06:00+28з46600 0.6 1011475
09:00+30юз45494 0.0 1012790
12:00+34зюз55375 0.0 10111261
15:00+36з44315 0.0 10091798
18:00+36з44310 0.0 10082015
21:00+35зсз45350 0.0 10101327